Regional Weather Roundup
Issued by NWS

Home | Current Version | Previous Version | Text Only | Print | Product List | Glossary On
Versions: 1 2 3 4 5 6 7 8 9 10 11 12 13 14 15 16 17 18 19 20 21 22 23 24 25 26 27 28 29 30 31 32 33 34 35 36 37 38 39 40 41 42 43 44 45 46 47 48 49 50
000
ASMX46 KSGX 031611
RWRMX

MEXICAN WEATHER ROUNDUP
NATIONAL WEATHER SERVICE SAN DIEGO CA
800 AM PST TUE MAR 03 2015

BAJA CALIFORNIA

CITY           SKY/WX    TMP DP  RH WIND       PRES   REMARKS
ENSENADA NW      N/A     55  32  41 CALM      29.94R
LA PAZ         PTSUNNY   72  57  60 S5        29.97
LORETO         LGT RAIN  68  68 100 N9        29.92R
MEXICALI       SUNNY     54  43  66 CALM      29.95
S.J. DEL CABO  MOSUNNY   72  55  56 CALM      29.95S
TIJUANA        PTSUNNY   52  43  71 E3        29.96R

NORTHWESTERN MEXICO

CITY           SKY/WX    TMP DP  RH WIND       PRES   REMARKS
CHIHUAHUA      PTSUNNY   63  34  34 S10       29.98
CULIACAN       PTSUNNY   73  63  68 CALM      29.93
GUAYMAS        PTSUNNY   63  61  94 CALM      29.90
HERMOSILLO       N/A    N/A N/A N/A MISG        N/A
JUAREZ         CLOUDY    54  45  71 N12       29.88
LOS MOCHIS     CLOUDY    72  61  68 W7        29.97R
OBREGON        LGT RAIN  64  63  94 SE7       29.92

NORTHEASTERN MEXICO

CITY           SKY/WX    TMP DP  RH WIND       PRES   REMARKS
MATAMOROS      FOG       61  61 100 CALM      30.05  VSB 3/4
MONCLOVA       PTSUNNY   57  48  72 CALM      29.98S FOG
MONTERREY      CLOUDY    57  54  88 CALM      30.01R FOG
NUEVO LAREDO   FOG       50  50 100 CALM      30.03  VSB 1
PIEDRAS NEGRAS   N/A    N/A N/A N/A MISG        N/A
REYNOSA        FOG       54  52  94 NW5       30.02  VSB 1/2
SALTILLO       SUNNY     72  52  49 S12       30.15S
TORREON        SUNNY     72  50  46 E5        30.08R
VICTORIA       MOSUNNY   72  64  78 SE12G23   30.00

WESTERN MEXICO

CITY           SKY/WX    TMP DP  RH WIND       PRES   REMARKS
AGUASCALIENTES SUNNY     61  36  39 SE3       30.31
COLIMA         SUNNY     79  54  41 CALM      30.07R
DURANGO        SUNNY     61  37  41 S7        30.23F
GUADALAJARA    SUNNY     70  36  28 CALM      30.23
MANZANILLO     SUNNY     81  68  65 N7        29.91S
MAZATLAN       SUNNY     70  61  73 SE7       29.95R
PTO. VALLARTA  SUNNY     73  55  53 N7        29.97R
TEPIC          SUNNY     68  50  52 CALM      30.09S
URUAPAN        SUNNY     66  52  59 CALM      30.22
ZACATECAS      SUNNY     63  39  42 SW9       30.30R

CENTRAL MEXICO

CITY           SKY/WX    TMP DP  RH WIND       PRES   REMARKS
CUERNAVACA     SUNNY     73  37  27 SE3       30.20R
LEON           SUNNY     66  45  45 CALM      30.35S
MEXICO CITY    SUNNY     61  41  48 NE5       30.34S
MORELIA        SUNNY     64  45  48 CALM      30.29
POZA RICA      CLOUDY    73  68  83 CALM      30.07F FOG
PUEBLA         SUNNY     59  39  47 E3        30.36S
QUERETARO      SUNNY     59  48  67 W3        30.34R
S. LUIS POTOSI SUNNY     57  46  67 CALM      30.25F HAZE
TAMPICO        CLOUDY    68  68 100 S7        30.06R FOG
TOLUCA         SUNNY     57  34  41 NW5       30.42R
VERACRUZ       PTSUNNY   75  68  78 NW3       30.05F

SOUTHERN MEXICO

CITY           SKY/WX    TMP DP  RH WIND       PRES   REMARKS
B. DE HUATULCO SUNNY     82  70  65 SE8       29.98
MINATITLAN     MOSUNNY   81  68  65 N12       30.00
OAXACA         SUNNY     66  45  45 CALM      30.30S
PTO. ESCONDIDO SUNNY     84  63  48 SW9       30.05R
TAPACHULA      SUNNY     88  68  51 CALM      29.94S
TUX. GUTIERREZ SUNNY     77  61  57 N2        30.06F
VILLAHERMOSA   CLOUDY    79  73  83 E8        30.05R
ZIHUATANEJO    SUNNY     84  64  51 SW6       29.95S

YUCATAN PENINSULA

CITY           SKY/WX    TMP DP  RH WIND       PRES   REMARKS
CAMPECHE       MOSUNNY   81  70  69 E9        30.04F
CANCUN         PTSUNNY   81  72  74 E16       30.12R
CHETUMAL       PTSUNNY   82  73  74 CALM      30.06S
C. DEL CARMEN  SUNNY     81  70  69 SE14      30.04
COZUMEL        MOSUNNY   79  70  73 E17       30.10S
MERIDA         PTSUNNY   84  70  61 E18       30.09S

$$



USA.gov is the U.S. government's official web portal to all federal, state and local government web resources and services.